[[{"header":{"parameterUnit":"m.s-1","parameterCategory":2,"la1":30.2991,"la2":30.254,"lo1":-89.0895,"lo2":-89.0444,"dy":0.0017,"dx":0.0017,"nx":28,"ny":28,"refTime":"2024-10-18T03:00:00:Z","depth":"0","parameterNumber":2,"parameterNumberName":"U-component_of_CURRENTS"},"data":[0,0,0,0,0,0,0,0,0,0,0,0,0,0,0,0,0,0,0,0,0,0,0,0,0,0,0,0,0,0,0,0,0,0,0,0,0,0,0,0,0,0,0,0,0,0,0,0,0,0,0,0,0,0,0,0,0,0,0.2217,0.2218,0,0.2239,0.2239,0.2239,0.2233,0.2233,0.2234,0.2234,0.2196,0.2195,0.2194,0,0,0,0,0,0,0,0,0,0,0,0,0,0.2148,0.2149,0.2217,0.2218,0.2219,0.2239,0.2239,0.2239,0.2233,0.2233,0.2234,0.2234,0.2196,0.2195,0.2194,0,0,0,0,0,0,0,0,0,0,0,0,0,0.217,0.215,0.2217,0.2222,0.2223,0.2239,0.2239,0.2239,0.2233,0.2233,0.2234,0.2234,0.2197,0.2195,0.2193,0.2182,0,0,0.2189,0.2188,0,0,0,0,0,0,0,0,0.2169,0.2172,0.2221,0.2222,0.2223,0.2238,0.2201,0.2219,0.2233,0.2224,0.2234,0.2234,0.2208,0.2205,0.2203,0.2181,0.2179,0.2189,0.2188,0.2187,0.2186,0,0,0,0,0,0,0,0.2167,0.2171,0.2221,0.2222,0.2223,0.2216,0.2219,0.2204,0.221,0.2225,0.2226,0.2237,0.2207,0.2204,0.2202,0.2178,0.2189,0.2187,0.2186,0.2186,0.2199,0.22,0,0,0,0,0,0,0.2177,0.217,0.222,0.2222,0.2202,0.2218,0.2221,0.2229,0.2212,0.2211,0.2236,0.2236,0.2207,0.2204,0.22,0.2218,0.2187,0.2185,0.2185,0.2197,0.2199,0.22,0,0,0,0,0,0,0.2175,0.2181,0.2219,0.22,0.2205,0.222,0.2229,0.223,0.2233,0.2222,0.2219,0.224,0.2207,0.2203,0.22,0.2215,0.2185,0.2183,0.2196,0.2198,0.2199,0.2232,0,0,0,0,0,0,0.2173,0.218,0.2184,0.2201,0.2207,0.2234,0.2229,0.223,0.2241,0.2241,0.2224,0.222,0.2207,0.2203,0.2199,0.2212,0.2182,0.2194,0.2197,0.2199,0.2229,0.2235,0.2239,0,0,0,0,0,0.217,0.217,0.2184,0.219,0.2214,0.2235,0.2237,0.2244,0.2242,0.2245,0.2239,0.2221,0.2216,0.2202,0.2197,0.2211,0.2193,0.2196,0.2199,0.2227,0.2234,0.2239,0,0,0,0,0,0,0.214,0.2171,0.2186,0.2196,0.2221,0.2236,0.2238,0.2247,0.2245,0.2244,0.2228,0.2224,0.2234,0.2219,0.2205,0.2225,0.2205,0.2207,0.2228,0.2234,0.2239,0.2237,0.2181,0,0,0,0,0,0.2139,0.2146,0.2183,0.2191,0.2204,0.2224,0.2232,0.2244,0.2249,0.2249,0.224,0.2236,0.2241,0.2235,0.2235,0.2233,0.223,0.2244,0.2249,0.2253,0.225,0.2277,0.2284,0.221,0.221,0.221,0,0,0.213,0.2148,0.2153,0.2185,0.2201,0.2216,0.2227,0.2245,0.2258,0.2244,0.2245,0.2252,0.2248,0.2257,0.226,0.2244,0.2272,0.2257,0.226,0.2255,0.2281,0.2288,0.2294,0.2212,0.2211,0.2211,0,0,0.2114,0.2134,0.2138,0.2159,0.2194,0.2211,0.222,0.2246,0.2257,0.2268,0.2272,0.2289,0.2278,0.2289,0.229,0.2322,0.2304,0.2325,0.2337,0.2364,0.237,0.2375,0.2374,0.2379,0.232,0.232,0.232,0,0.2108,0.2116,0.2142,0.2153,0.2169,0.2209,0.222,0.2239,0.2261,0.2276,0.2271,0.2298,0.2295,0.232,0.2336,0.2332,0.2335,0.2311,0.2369,0.2374,0.2379,0.2377,0.2382,0.2322,0.2322,0.2321,0.2321,0,0.2098,0.2106,0.211,0.2138,0.2157,0.2175,0.2215,0.2236,0.2256,0.228,0.2317,0.2327,0.2343,0.2354,0.2348,0.2389,0.2376,0.2378,0.235,0.2388,0.2384,0.2389,0.2325,0.2324,0.2323,0.2323,0,0,0.2107,0.2102,0.2109,0.2114,0.2153,0.2171,0.2197,0.2241,0.2265,0.2297,0.2327,0.2356,0.2378,0.2383,0.2395,0.2415,0.2452,0.2408,0.2409,0.2401,0.2493,0.2471,0.2474,0.2466,0.2467,0.2468,0.2474,0,0.2104,0.2095,0.2103,0.2114,0.2123,0.2161,0.2182,0.2226,0.2264,0.2303,0.2347,0.2376,0.2386,0.2398,0.2428,0.2455,0.2467,0.2449,0.2463,0.2463,0.2434,0.248,0.2399,0.2397,0.2478,0.2479,0.2479,0,0.212,0.2106,0.2095,0.2105,0.2115,0.2125,0.2176,0.2201,0.227,0.23,0.235,0.2384,0.2436,0.2432,0.2493,0.2482,0.2486,0.2498,0.2499,0.2469,0.245,0.2374,0.2402,0.2362,0.2486,0.2485,0.2485,0,0.2133,0.2121,0.2103,0.2106,0.2116,0.2125,0.2142,0.2201,0.2237,0.2301,0.2338,0.24,0.244,0.2471,0.2511,0.2501,0.2568,0.2554,0.2532,0.2529,0.2457,0.2447,0.2441,0.258,0.258,0.258,0.258,0,0.215,0.2146,0.2099,0.2098,0.2093,0.2111,0.2135,0.217,0.2231,0.2273,0.2337,0.2383,0.2455,0.2508,0.2522,0.2553,0.2579,0.254,0.2539,0.2466,0.2457,0.2416,0.2384,0.2581,0.2581,0.2581,0.2581,0,0.2182,0.2147,0.2134,0.211,0.21,0.2104,0.2124,0.215,0.2208,0.2265,0.2287,0.2391,0.2452,0.2513,0.2565,0.2568,0.2519,0.2584,0.2484,0.2471,0.24,0.2373,0.2264,0.218,0.2551,0.2551,0.2551,0,0.2183,0.2175,0.2137,0.2116,0.2101,0.2094,0.2095,0.2137,0.2166,0.2262,0.2291,0.2379,0.2439,0.2526,0.2545,0.2567,0.2491,0.2484,0.245,0.2392,0.2361,0.2269,0.2199,0.236,0.2358,0.2356,0.2355,0,0.2189,0.2181,0.2166,0.2116,0.2094,0.2076,0.2076,0.2098,0.215,0.2199,0.2266,0.2322,0.2423,0.2432,0.2478,0.2477,0.2365,0.2452,0.2424,0.2239,0.2105,0.2024,0.2345,0.2342,0.2343,0.2344,0.2345,0.2345,0.2188,0.2178,0.2142,0.2097,0.2074,0.2038,0.2005,0.2027,0.205,0.2087,0.2186,0.2233,0.231,0.2377,0.2366,0.2312,0.2274,0.2239,0.2217,0.2135,0.2031,0.2316,0.2297,0.2298,0.2299,0.23,0.2301,0,0.2138,0.2127,0.2107,0.2038,0.1991,0.1987,0.1967,0.1924,0.1907,0.1994,0.2032,0.2103,0.2133,0.2185,0.2187,0.2103,0.1996,0.2034,0.189,0.1836,0.2127,0.21,0.1999,0.1999,0.1999,0.2,0.2,0.2,0.2107,0.2058,0.2043,0.1935,0.1897,0.1787,0.1754,0.1724,0.1753,0.1764,0.18,0.1874,0.2,0.2076,0.2025,0.1961,0.1792,0.1706,0.1684,0.1918,0.1935,0.1952,0.1921,0.1785,0.1784,0.1319,0.1316,0.1313]},{"header":{"parameterUnit":"m.s-1","parameterCategory":2,"la1":30.2991,"la2":30.254,"lo1":-89.0895,"lo2":-89.0444,"dy":0.0017,"dx":0.0017,"nx":28,"ny":28,"refTime":"2024-10-18T03:00:00:Z","depth":"0","parameterNumber":3,"parameterNumberName":"V-component_of_CURRENTS"},"data":[0,0,0,0,0,0,0,0,0,0,0,0,0,0,0,0,0,0,0,0,0,0,0,0,0,0,0,0,0,0,0,0,0,0,0,0,0,0,0,0,0,0,0,0,0,0,0,0,0,0,0,0,0,0,0,0,0,0,-0.0054,-0.0055,0,-0.0144,-0.0145,-0.0146,-0.0192,-0.0193,-0.0193,-0.0193,-0.0269,-0.0271,-0.0272,0,0,0,0,0,0,0,0,0,0,0,0,0,0.0032,0.0031,-0.0054,-0.0055,-0.0057,-0.0144,-0.0145,-0.0146,-0.0192,-0.0193,-0.0193,-0.0193,-0.0268,-0.027,-0.0272,0,0,0,0,0,0,0,0,0,0,0,0,0,-0.0024,0.0031,-0.0054,-0.0092,-0.0097,-0.0144,-0.0145,-0.0146,-0.0192,-0.0193,-0.0193,-0.0193,-0.0268,-0.027,-0.0273,-0.028,0,0,-0.0281,-0.0282,0,0,0,0,0,0,0,0,-0.0021,-0.0027,-0.0085,-0.009,-0.0095,-0.016,-0.0143,-0.0191,-0.0192,-0.0153,-0.0193,-0.0194,-0.0232,-0.0238,-0.025,-0.0284,-0.0287,-0.0281,-0.0283,-0.0284,-0.0284,0,0,0,0,0,0,0,-0.0017,-0.0023,-0.0087,-0.0087,-0.0093,-0.0121,-0.0129,-0.0152,-0.0187,-0.0157,-0.0161,-0.0175,-0.0235,-0.0248,-0.0253,-0.0288,-0.0281,-0.0283,-0.0285,-0.0286,-0.0348,-0.0348,0,0,0,0,0,0,-0.0008,-0.0019,-0.0084,-0.009,-0.0061,-0.0122,-0.0131,-0.0136,-0.0187,-0.0196,-0.0174,-0.0177,-0.0243,-0.0249,-0.0255,-0.0266,-0.0284,-0.0286,-0.0288,-0.0348,-0.0348,-0.0348,0,0,0,0,0,0,-0.0006,-0.0012,-0.0081,-0.0059,-0.007,-0.0123,-0.0129,-0.0138,-0.0151,-0.0201,-0.021,-0.0179,-0.0244,-0.0252,-0.0277,-0.0269,-0.0287,-0.029,-0.0348,-0.0348,-0.0348,-0.0287,0,0,0,0,0,0,-0.0003,-0.0011,-0.0007,-0.0058,-0.0071,-0.0102,-0.0129,-0.014,-0.016,-0.0164,-0.0208,-0.0215,-0.0245,-0.0273,-0.028,-0.0273,-0.0292,-0.0348,-0.0348,-0.0348,-0.0289,-0.0285,-0.0282,0,0,0,0,0,0.0001,0.001,-0.0006,-0.0014,-0.0065,-0.0102,-0.011,-0.0148,-0.016,-0.0161,-0.0195,-0.0214,-0.0279,-0.0275,-0.0283,-0.0277,-0.0348,-0.0348,-0.0348,-0.029,-0.0286,-0.0282,0,0,0,0,0,0,0.0045,0.0004,-0.0014,-0.0019,-0.0056,-0.011,-0.0114,-0.0142,-0.0169,-0.017,-0.0214,-0.0224,-0.0245,-0.0271,-0.0265,-0.0297,-0.0317,-0.0319,-0.027,-0.0266,-0.0263,-0.0237,-0.0294,0,0,0,0,0,0.0057,0.0057,0.0006,0.0001,-0.0011,-0.006,-0.0078,-0.0105,-0.0141,-0.0154,-0.0187,-0.0221,-0.0252,-0.0266,-0.0296,-0.031,-0.0328,-0.0313,-0.0309,-0.0306,-0.0291,-0.0316,-0.0312,-0.0349,-0.0349,-0.0349,0,0,0.0069,0.0049,0.0046,0.0011,-0.0016,-0.0027,-0.007,-0.0092,-0.0103,-0.0157,-0.0171,-0.0209,-0.0254,-0.0273,-0.0284,-0.0292,-0.0305,-0.0306,-0.0302,-0.029,-0.0315,-0.0312,-0.0308,-0.0349,-0.0349,-0.0349,0,0,0.0095,0.0081,0.0088,0.0068,0.0032,0.0002,-0.0001,-0.0051,-0.0071,-0.0096,-0.0138,-0.0168,-0.0213,-0.0243,-0.0265,-0.0258,-0.0287,-0.0272,-0.023,-0.0254,-0.025,-0.0247,-0.0263,-0.0263,-0.0268,-0.0268,-0.0268,0,0.0108,0.0113,0.0083,0.0086,0.0076,0.0021,0.0024,-0.0004,-0.0057,-0.0068,-0.0091,-0.0157,-0.0196,-0.022,-0.0222,-0.0247,-0.0264,-0.024,-0.0247,-0.0244,-0.0243,-0.026,-0.026,-0.0265,-0.0266,-0.0266,-0.0266,0,0.0135,0.0142,0.0148,0.0138,0.0126,0.0119,0.0077,0.0063,0.0032,-0.0003,-0.0034,-0.0092,-0.0128,-0.0152,-0.0186,-0.0195,-0.0213,-0.0239,-0.0251,-0.0235,-0.0255,-0.0255,-0.0261,-0.0262,-0.0263,-0.0264,0,0,0.0139,0.0164,0.0163,0.0177,0.0154,0.0145,0.0141,0.0114,0.0117,0.0062,0.0059,-0.0007,-0.004,-0.0066,-0.0116,-0.0141,-0.015,-0.0179,-0.0182,-0.0183,-0.0195,-0.0198,-0.02,-0.0178,-0.0178,-0.0178,-0.0213,0,0.0162,0.0201,0.0198,0.0224,0.0236,0.0209,0.0212,0.0186,0.0156,0.0142,0.0077,0.0052,-0.0008,-0.0024,-0.0058,-0.0127,-0.015,-0.0138,-0.0221,-0.0223,-0.0218,-0.02,-0.0182,-0.0211,-0.0214,-0.0214,-0.0214,0,0.0169,0.0202,0.0244,0.0279,0.0282,0.0289,0.0294,0.0288,0.0257,0.0235,0.02,0.015,0.0104,0.005,-0.0044,-0.0033,-0.0103,-0.0159,-0.0163,-0.0184,-0.0228,-0.023,-0.0213,-0.0313,-0.0216,-0.0216,-0.0216,0,0.0174,0.0222,0.0266,0.0275,0.0307,0.0321,0.0329,0.0315,0.0325,0.0295,0.03,0.0231,0.0203,0.0111,-0.0006,-0.0024,-0.0106,-0.0148,-0.0215,-0.0216,-0.0225,-0.0227,-0.0302,-0.0207,-0.0206,-0.0206,-0.0206,0,0.0182,0.0211,0.0278,0.0296,0.0351,0.0355,0.0395,0.0389,0.0398,0.0419,0.035,0.0355,0.0218,0.015,0.0033,-0.0083,-0.0077,-0.0195,-0.0221,-0.0204,-0.0203,-0.0312,-0.0384,-0.0208,-0.0207,-0.0207,-0.0207,0,0.0163,0.0207,0.026,0.0324,0.0351,0.0383,0.0446,0.0476,0.0474,0.0504,0.0501,0.0452,0.037,0.0232,0.0088,-0.0023,-0.0205,-0.0188,-0.0152,-0.0174,-0.033,-0.0399,-0.0506,-0.0574,-0.0261,-0.0262,-0.0262,0,0.0164,0.0192,0.0281,0.0329,0.0361,0.0423,0.0471,0.0502,0.0543,0.0565,0.0587,0.0531,0.05,0.03,0.0105,-0.008,-0.0208,-0.0196,-0.023,-0.0322,-0.0419,-0.0469,-0.0522,-0.0222,-0.0222,-0.0222,-0.0221,0,0.0172,0.0198,0.0249,0.0346,0.0413,0.0489,0.0561,0.0613,0.0652,0.0691,0.073,0.0715,0.0538,0.0379,0.013,-0.0016,-0.027,-0.0199,-0.0308,-0.0397,-0.0444,-0.0526,-0.0214,-0.022,-0.022,-0.022,-0.0221,-0.0221,0.0186,0.0217,0.0291,0.0375,0.0454,0.0545,0.0602,0.0691,0.0775,0.0836,0.0832,0.0833,0.061,0.0287,0.0087,-0.0248,-0.0274,-0.0352,-0.0428,-0.0469,-0.0533,-0.021,-0.024,-0.0241,-0.0241,-0.0241,-0.0241,0,0.0227,0.0258,0.0328,0.0428,0.0499,0.0542,0.066,0.0718,0.0823,0.0897,0.0935,0.0843,0.0569,0.0259,-0.017,-0.0416,-0.0532,-0.0563,-0.0634,-0.068,-0.0397,-0.0393,-0.0441,-0.044,-0.044,-0.044,-0.044,-0.044,0.0252,0.0316,0.034,0.0454,0.0515,0.0606,0.0668,0.0762,0.0838,0.0916,0.0936,0.0928,0.0708,0.0019,-0.0495,-0.0636,-0.0839,-0.0869,-0.0985,-0.0791,-0.0777,-0.0764,-0.0776,-0.0903,-0.0903,-0.1226,-0.1229,-0.1232]}],[{"header":{"parameterUnit":"m.s-1","parameterCategory":2,"la1":30.2991,"la2":30.254,"lo1":-89.0895,"lo2":-89.0444,"dy":0.0017,"dx":0.0017,"nx":28,"ny":28,"refTime":"2024-10-18T03:00:00:Z","depth":"2","parameterNumber":2,"parameterNumberName":"U-component_of_CURRENTS"},"data":[0,0,0,0,0,0,0,0,0,0,0,0,0,0,0,0,0,0,0,0,0,0,0,0,0,0,0,0,0,0,0,0,0,0,0,0,0,0,0,0,0,0,0,0,0,0,0,0,0,0,0,0,0,0,0,0,0,0,0.2181,0.2182,0,0.2208,0.2208,0.2208,0.2226,0.2226,0.2227,0.2227,0.2211,0.221,0.2209,0,0,0,0,0,0,0,0,0,0,0,0,0,0.2123,0.2124,0.2181,0.2182,0.2183,0.2208,0.2208,0.2208,0.2226,0.2226,0.2227,0.2228,0.2211,0.221,0.2209,0,0,0,0,0,0,0,0,0,0,0,0,0,0.2145,0.2124,0.2181,0.2198,0.22,0.2208,0.2208,0.2208,0.2226,0.2226,0.2227,0.2228,0.2211,0.221,0.2209,0.2185,0,0,0.2204,0.2204,0,0,0,0,0,0,0,0,0.2144,0.2147,0.2195,0.2197,0.2199,0.2218,0.2182,0.22,0.2225,0.2211,0.2227,0.2228,0.2211,0.221,0.2208,0.2184,0.2183,0.2204,0.2203,0.2203,0.2202,0,0,0,0,0,0,0,0.2142,0.2145,0.2188,0.2195,0.2198,0.2197,0.22,0.2185,0.2203,0.2213,0.2215,0.2224,0.2212,0.2209,0.2208,0.2183,0.2204,0.2203,0.2202,0.2202,0.2226,0.2227,0,0,0,0,0,0,0.2148,0.2144,0.2187,0.2189,0.2178,0.2197,0.2201,0.2208,0.2204,0.2206,0.2224,0.2225,0.2211,0.2209,0.2207,0.2235,0.2203,0.2202,0.2201,0.2224,0.2226,0.2228,0,0,0,0,0,0,0.2146,0.2151,0.2186,0.2171,0.2176,0.2198,0.2205,0.2208,0.222,0.2214,0.2214,0.2235,0.2212,0.2209,0.2215,0.2233,0.2201,0.22,0.2223,0.2225,0.2227,0.2255,0,0,0,0,0,0,0.2145,0.215,0.2158,0.2171,0.2177,0.2205,0.2205,0.2208,0.2226,0.2228,0.2223,0.2221,0.2212,0.2218,0.2214,0.223,0.2199,0.2221,0.2224,0.2226,0.2252,0.2258,0.2263,0,0,0,0,0,0.2142,0.2146,0.2158,0.2163,0.2186,0.2206,0.2209,0.2224,0.2226,0.2235,0.2237,0.2222,0.2233,0.2217,0.2213,0.2229,0.222,0.2223,0.2226,0.225,0.2257,0.2263,0,0,0,0,0,0,0.2123,0.2149,0.2162,0.2173,0.2198,0.2211,0.2218,0.2229,0.2236,0.2239,0.2228,0.2227,0.2246,0.2234,0.2217,0.2249,0.2229,0.2231,0.2248,0.2255,0.226,0.2257,0.2198,0,0,0,0,0,0.2124,0.2132,0.2163,0.2172,0.2185,0.2203,0.2213,0.2229,0.2238,0.2243,0.224,0.2243,0.2253,0.2251,0.2256,0.2258,0.2254,0.2272,0.2277,0.2281,0.2279,0.2306,0.2313,0.2239,0.2239,0.2239,0,0,0.2118,0.2134,0.2139,0.2169,0.2183,0.2199,0.221,0.2233,0.2248,0.2238,0.2249,0.2259,0.226,0.2276,0.2283,0.2267,0.23,0.2286,0.2289,0.2285,0.231,0.2317,0.2324,0.2241,0.224,0.224,0,0,0.2107,0.2127,0.2132,0.2152,0.2186,0.2201,0.2212,0.2238,0.2254,0.2269,0.2277,0.23,0.2295,0.2311,0.2315,0.2349,0.2332,0.2356,0.2369,0.2395,0.2401,0.2406,0.2402,0.2407,0.2352,0.2352,0.2352,0,0.2106,0.2113,0.2137,0.2149,0.2165,0.2203,0.2215,0.2237,0.2262,0.2279,0.2279,0.2312,0.2314,0.2343,0.2362,0.236,0.2362,0.234,0.2401,0.2406,0.2411,0.2405,0.241,0.2354,0.2353,0.2353,0.2353,0,0.2099,0.2109,0.2113,0.214,0.216,0.2179,0.2218,0.2243,0.2265,0.2289,0.2331,0.2346,0.2366,0.2379,0.2375,0.2419,0.2404,0.2408,0.238,0.242,0.2412,0.2416,0.2356,0.2356,0.2355,0.2355,0,0,0.2108,0.2107,0.2114,0.212,0.216,0.2177,0.2207,0.2251,0.2276,0.2313,0.2344,0.238,0.2402,0.2409,0.2423,0.2445,0.2479,0.2439,0.244,0.2425,0.2518,0.2489,0.2491,0.2495,0.2496,0.2497,0.2494,0,0.2107,0.2101,0.211,0.2125,0.2135,0.2172,0.2195,0.2241,0.2281,0.2321,0.2368,0.2399,0.241,0.2425,0.2456,0.2482,0.2494,0.2478,0.249,0.2489,0.2452,0.2497,0.229,0.2269,0.2498,0.2499,0.2499,0,0.2125,0.2112,0.2105,0.2119,0.2129,0.2141,0.2193,0.222,0.2289,0.2322,0.2373,0.2407,0.2461,0.2459,0.2518,0.2508,0.2512,0.2524,0.2524,0.249,0.247,0.227,0.2268,0.2506,0.2506,0.2505,0.2505,0,0.2137,0.2129,0.2114,0.2118,0.2132,0.2142,0.2161,0.222,0.2258,0.2323,0.236,0.2423,0.2464,0.2494,0.2534,0.2525,0.2588,0.2575,0.2547,0.2543,0.2365,0.2344,0.2602,0.2602,0.2602,0.2602,0.2602,0,0.2154,0.2155,0.211,0.2112,0.2109,0.2129,0.2155,0.2192,0.2253,0.2295,0.236,0.2405,0.2478,0.2529,0.2542,0.2568,0.2596,0.2554,0.255,0.2369,0.235,0.2555,0.255,0.2602,0.2602,0.2602,0.2602,0,0.219,0.2156,0.2148,0.2126,0.2117,0.2123,0.2146,0.2172,0.2231,0.2288,0.231,0.2411,0.2469,0.2528,0.2579,0.2578,0.2597,0.2589,0.2363,0.2334,0.2522,0.2519,0.2547,0.2546,0.2546,0.2545,0.2545,0,0.219,0.2189,0.2154,0.2131,0.2118,0.2114,0.2116,0.216,0.2188,0.2282,0.231,0.2395,0.2447,0.2525,0.2522,0.2534,0.2583,0.2343,0.2296,0.2528,0.2522,0.2519,0.2516,0.2055,0.2051,0.2047,0.2044,0,0.2202,0.2202,0.219,0.2134,0.2112,0.2095,0.2097,0.2118,0.2171,0.2216,0.2277,0.2326,0.24,0.2331,0.2361,0.2341,0.2329,0.2271,0.2572,0.2121,0.207,0.2062,0.2074,0.2012,0.2015,0.2018,0.2019,0.2021,0.2207,0.2201,0.2168,0.2119,0.2094,0.2057,0.2026,0.204,0.2059,0.2074,0.2173,0.2157,0.2176,0.2127,0.2068,0.2022,0.2189,0.2075,0.2084,0.2096,0.206,0.2013,0.1935,0.1937,0.194,0.1942,0.1943,0,0.216,0.2158,0.2135,0.2061,0.2009,0.2008,0.1988,0.1933,0.1903,0.1941,0.1954,0.18,0.175,0.1769,0.1657,0.1674,0.1632,0.1596,0.1507,0.1542,0.1572,0.1505,0.1235,0.1232,0.123,0.1228,0,0,0.2131,0.2081,0.2065,0.1952,0.1916,0.1804,0.1772,0.172,0.1708,0.1649,0.1604,0.1681,0.1738,0.146,0.1428,0.1311,0.1416,0.1261,0.1834,0.1766,0.1793,0.186,0.1799,0,0,0,0,0]},{"header":{"parameterUnit":"m.s-1","parameterCategory":2,"la1":30.2991,"la2":30.254,"lo1":-89.0895,"lo2":-89.0444,"dy":0.0017,"dx":0.0017,"nx":28,"ny":28,"refTime":"2024-10-18T03:00:00:Z","depth":"2","parameterNumber":3,"parameterNumberName":"V-component_of_CURRENTS"},"data":[0,0,0,0,0,0,0,0,0,0,0,0,0,0,0,0,0,0,0,0,0,0,0,0,0,0,0,0,0,0,0,0,0,0,0,0,0,0,0,0,0,0,0,0,0,0,0,0,0,0,0,0,0,0,0,0,0,0,0.0044,0.0043,0,-0.0038,-0.0039,-0.004,-0.0098,-0.0098,-0.0099,-0.0099,-0.0178,-0.018,-0.0181,0,0,0,0,0,0,0,0,0,0,0,0,0,0.0106,0.0106,0.0044,0.0043,0.0042,-0.0038,-0.0039,-0.004,-0.0098,-0.0098,-0.0099,-0.0099,-0.0178,-0.018,-0.0181,0,0,0,0,0,0,0,0,0,0,0,0,0,0.0058,0.0106,0.0044,0.0003,-0.0002,-0.0038,-0.0039,-0.004,-0.0097,-0.0098,-0.0099,-0.01,-0.0177,-0.0179,-0.0182,-0.018,0,0,-0.0189,-0.019,0,0,0,0,0,0,0,0,0.0061,0.0056,0.001,0.0005,0.0,-0.0059,-0.0046,-0.0087,-0.0097,-0.006,-0.0099,-0.01,-0.0138,-0.0144,-0.0156,-0.0184,-0.0187,-0.0189,-0.0191,-0.0192,-0.0192,0,0,0,0,0,0,0,0.0065,0.0059,0.0012,0.0009,0.0003,-0.0027,-0.0034,-0.0054,-0.0093,-0.0063,-0.0068,-0.0078,-0.0141,-0.0154,-0.0158,-0.0189,-0.0189,-0.0191,-0.0193,-0.0194,-0.0258,-0.0258,0,0,0,0,0,0,0.0076,0.0063,0.0015,0.001,0.0028,-0.0027,-0.0036,-0.0039,-0.0093,-0.0102,-0.0078,-0.0081,-0.0149,-0.0156,-0.0161,-0.0177,-0.0192,-0.0194,-0.0195,-0.0257,-0.0258,-0.0258,0,0,0,0,0,0,0.0078,0.0073,0.0018,0.0033,0.0024,-0.0027,-0.0031,-0.004,-0.0058,-0.0104,-0.0113,-0.0087,-0.015,-0.0158,-0.0186,-0.018,-0.0195,-0.0197,-0.0257,-0.0258,-0.0258,-0.0198,0,0,0,0,0,0,0.008,0.0074,0.0077,0.0034,0.0023,-0.0002,-0.003,-0.0041,-0.0063,-0.0068,-0.0114,-0.0123,-0.0151,-0.0182,-0.0188,-0.0183,-0.0199,-0.0257,-0.0257,-0.0258,-0.02,-0.0196,-0.0193,0,0,0,0,0,0.0083,0.009,0.0077,0.0071,0.0028,-0.0002,-0.001,-0.0049,-0.0062,-0.0068,-0.0102,-0.0121,-0.019,-0.0184,-0.0191,-0.0187,-0.0257,-0.0257,-0.0258,-0.0201,-0.0197,-0.0193,0,0,0,0,0,0,0.0113,0.0083,0.0069,0.0065,0.0034,-0.0012,-0.0018,-0.0044,-0.0075,-0.0079,-0.0121,-0.0132,-0.0155,-0.0181,-0.0173,-0.0209,-0.0227,-0.0229,-0.0182,-0.0178,-0.0175,-0.0152,-0.0201,0,0,0,0,0,0.0124,0.0125,0.0085,0.0082,0.0071,0.0029,0.0012,-0.0015,-0.0049,-0.0064,-0.0096,-0.0132,-0.0161,-0.0177,-0.0207,-0.0221,-0.0239,-0.0226,-0.0223,-0.022,-0.0208,-0.0233,-0.023,-0.026,-0.026,-0.026,0,0,0.0132,0.0118,0.0116,0.0089,0.0066,0.0057,0.0017,-0.0004,-0.0014,-0.0066,-0.0084,-0.012,-0.0164,-0.0184,-0.0197,-0.0205,-0.0222,-0.0221,-0.0218,-0.0207,-0.0233,-0.023,-0.0227,-0.026,-0.026,-0.026,0,0,0.0154,0.0142,0.0149,0.0133,0.0102,0.0077,0.0074,0.0031,0.0009,-0.0016,-0.0056,-0.0086,-0.0131,-0.016,-0.018,-0.0177,-0.0204,-0.0192,-0.0155,-0.0179,-0.0176,-0.0174,-0.019,-0.019,-0.019,-0.019,-0.019,0,0.0163,0.017,0.0144,0.0149,0.0141,0.0092,0.0096,0.0069,0.002,0.001,-0.0015,-0.0078,-0.0117,-0.0138,-0.0143,-0.0167,-0.0184,-0.0162,-0.0172,-0.0171,-0.0169,-0.0187,-0.0187,-0.0187,-0.0187,-0.0188,-0.0188,0,0.0187,0.0194,0.0199,0.0194,0.0183,0.0177,0.0142,0.0127,0.0096,0.0066,0.0034,-0.0022,-0.0057,-0.008,-0.0112,-0.0123,-0.0139,-0.0163,-0.0175,-0.0162,-0.0182,-0.0184,-0.0183,-0.0184,-0.0185,-0.0185,0,0,0.0193,0.0214,0.0214,0.0227,0.0208,0.0201,0.0196,0.0174,0.0177,0.0122,0.0119,0.0055,0.0024,-0.0002,-0.0048,-0.0074,-0.0086,-0.011,-0.0113,-0.0114,-0.0133,-0.0136,-0.0139,-0.0112,-0.0112,-0.0112,-0.0149,0,0.0214,0.0249,0.0247,0.0272,0.0284,0.026,0.0263,0.0239,0.0211,0.0197,0.0135,0.0111,0.0053,0.0038,0.0003,-0.0062,-0.0087,-0.0073,-0.0156,-0.0158,-0.0152,-0.014,-0.0115,-0.0146,-0.015,-0.0151,-0.0151,0,0.0224,0.0253,0.029,0.0323,0.0326,0.0333,0.0339,0.0335,0.0305,0.0283,0.0249,0.0202,0.0156,0.0103,0.0011,0.0023,-0.0045,-0.01,-0.0103,-0.0125,-0.0164,-0.0162,-0.0149,-0.0154,-0.0153,-0.0153,-0.0153,0,0.0231,0.0274,0.0313,0.0322,0.035,0.0364,0.0371,0.0359,0.0369,0.034,0.0344,0.0276,0.0249,0.0158,0.0043,0.0028,-0.0056,-0.0093,-0.016,-0.0161,-0.0165,-0.0166,-0.0153,-0.0153,-0.0153,-0.0153,-0.0153,0,0.0244,0.027,0.0324,0.0341,0.0392,0.0396,0.0434,0.0428,0.0437,0.0458,0.0391,0.0395,0.0261,0.0193,0.0079,-0.0036,-0.003,-0.0142,-0.0168,-0.0145,-0.0143,-0.0173,-0.0175,-0.0155,-0.0154,-0.0154,-0.0154,0,0.0233,0.0269,0.0315,0.0369,0.0394,0.0424,0.0483,0.0512,0.051,0.0538,0.0536,0.0487,0.0403,0.0269,0.0127,0.0021,-0.0097,-0.0142,-0.0101,-0.012,-0.0194,-0.0193,-0.0214,-0.0214,-0.0214,-0.0215,-0.0215,0,0.0247,0.0263,0.0334,0.0377,0.0405,0.0462,0.0507,0.0537,0.0576,0.0596,0.0618,0.056,0.0527,0.0328,0.014,-0.0041,-0.0083,-0.0148,-0.0177,-0.0176,-0.0199,-0.0197,-0.0195,-0.0162,-0.0162,-0.0161,-0.0161,0,0.026,0.0267,0.0307,0.0394,0.0457,0.0527,0.0595,0.0645,0.0682,0.0717,0.0751,0.0733,0.0559,0.0395,0.0151,0.0021,-0.0116,-0.015,-0.0158,-0.0148,-0.013,-0.0152,-0.0151,-0.016,-0.016,-0.016,-0.016,-0.016,0.027,0.0293,0.0344,0.0421,0.0495,0.0581,0.0635,0.0717,0.0796,0.0841,0.0838,0.0802,0.0635,0.0326,0.0132,-0.009,-0.0094,-0.0185,-0.0185,-0.0185,-0.0169,-0.0153,-0.0184,-0.0184,-0.0184,-0.0184,-0.0185,0,0.0297,0.0318,0.038,0.0469,0.0537,0.0577,0.0689,0.0738,0.0833,0.0874,0.0897,0.0737,0.0575,0.0365,0.0051,-0.0127,-0.0148,-0.0195,-0.0177,-0.0177,-0.0177,-0.0161,-0.0174,-0.0174,-0.0175,-0.0175,0,0,0.0315,0.0368,0.0389,0.0493,0.0549,0.0636,0.0695,0.0771,0.082,0.0862,0.0849,0.0829,0.0611,0.0392,0.0165,-0.0011,-0.0065,-0.0053,-0.0044,0.0004,0.0005,-0.0152,-0.0125,0,0,0,0,0]}],[{"header":{"parameterUnit":"m.s-1","parameterCategory":2,"la1":30.2991,"la2":30.254,"lo1":-89.0895,"lo2":-89.0444,"dy":0.0017,"dx":0.0017,"nx":28,"ny":28,"refTime":"2024-10-18T03:00:00:Z","depth":"4","parameterNumber":2,"parameterNumberName":"U-component_of_CURRENTS"},"data":[0,0,0,0,0,0,0,0,0,0,0,0,0,0,0,0,0,0,0,0,0,0,0,0,0,0,0,0,0,0,0,0,0,0,0,0,0,0,0,0,0,0,0,0,0,0,0,0,0,0,0,0,0,0,0,0,0,0,0.1329,0.1329,0,0.1345,0.1345,0.1346,0.1374,0.1375,0.1376,0.1376,0.1412,0.1412,0.1412,0,0,0,0,0,0,0,0,0,0,0,0,0,0.1311,0.1311,0.1329,0.1329,0.1329,0.1345,0.1345,0.1346,0.1374,0.1375,0.1376,0.1376,0.1411,0.1412,0.1412,0,0,0,0,0,0,0,0,0,0,0,0,0,0.1321,0.1311,0.1328,0.1346,0.1348,0.1345,0.1345,0.1346,0.1374,0.1375,0.1376,0.1377,0.1411,0.1412,0.1412,0.1396,0,0,0.1414,0.1414,0,0,0,0,0,0,0,0,0.1321,0.1322,0.1343,0.1345,0.1347,0.136,0.1352,0.1364,0.1374,0.1363,0.1376,0.1377,0.1396,0.1398,0.1397,0.1398,0.1399,0.1414,0.1414,0.1414,0.1415,0,0,0,0,0,0,0,0.132,0.1321,0.1334,0.1344,0.1346,0.135,0.1352,0.1354,0.1373,0.1364,0.1366,0.137,0.1397,0.1396,0.1398,0.14,0.1414,0.1414,0.1415,0.1415,0.1485,0.1487,0,0,0,0,0,0,0.132,0.132,0.1334,0.1335,0.1337,0.135,0.1352,0.1354,0.1373,0.1377,0.1369,0.1371,0.1395,0.1397,0.1399,0.1461,0.1414,0.1415,0.1415,0.1484,0.1486,0.1487,0,0,0,0,0,0,0.1319,0.132,0.1333,0.1329,0.1331,0.1349,0.135,0.1354,0.1379,0.1377,0.1381,0.1395,0.1396,0.1399,0.1434,0.1459,0.1415,0.1416,0.1482,0.1484,0.1487,0.1532,0,0,0,0,0,0,0.1318,0.132,0.1337,0.1329,0.1331,0.1348,0.135,0.1353,0.1379,0.1383,0.1399,0.1402,0.1397,0.1433,0.1435,0.1459,0.1416,0.148,0.1483,0.1486,0.1529,0.1536,0.1542,0,0,0,0,0,0.1318,0.133,0.1337,0.134,0.1348,0.1348,0.135,0.1365,0.1379,0.1392,0.1415,0.1403,0.1453,0.1435,0.1436,0.1461,0.1479,0.1482,0.1486,0.1526,0.1535,0.1542,0,0,0,0,0,0,0.1332,0.1334,0.1342,0.1355,0.1361,0.1354,0.1374,0.1379,0.1405,0.1423,0.1419,0.1424,0.1464,0.1459,0.1439,0.1493,0.1465,0.1469,0.1496,0.1504,0.151,0.1512,0.1416,0,0,0,0,0,0.1342,0.1356,0.1352,0.1368,0.1374,0.1379,0.1389,0.1397,0.1411,0.1424,0.144,0.146,0.1473,0.1487,0.1499,0.1525,0.1524,0.1544,0.1551,0.1556,0.156,0.1584,0.1593,0.1499,0.1499,0.1499,0,0,0.1353,0.1358,0.1367,0.1374,0.1383,0.1392,0.1388,0.141,0.1428,0.1423,0.1471,0.1484,0.1486,0.152,0.1537,0.1523,0.1586,0.1561,0.1565,0.1566,0.1589,0.1598,0.1606,0.1501,0.1501,0.1501,0,0,0.1369,0.1387,0.1399,0.1406,0.1424,0.1424,0.1436,0.1448,0.147,0.1505,0.1511,0.1544,0.1567,0.1576,0.158,0.163,0.1619,0.1638,0.1673,0.1696,0.1704,0.1711,0.1729,0.1737,0.1642,0.1642,0.1642,0,0.1387,0.1396,0.1404,0.1416,0.1427,0.1441,0.1453,0.1471,0.1499,0.152,0.1532,0.1584,0.1591,0.162,0.1644,0.1644,0.1655,0.1639,0.1704,0.171,0.1716,0.1733,0.1741,0.1645,0.1644,0.1644,0.1644,0,0.1397,0.1418,0.1429,0.1447,0.146,0.1477,0.1494,0.1527,0.1558,0.1572,0.1625,0.1644,0.1673,0.1684,0.1681,0.1728,0.1723,0.1708,0.168,0.1728,0.1744,0.1751,0.1648,0.1648,0.1647,0.1646,0,0,0.1386,0.1428,0.1434,0.1453,0.148,0.1489,0.1529,0.1555,0.1589,0.1632,0.1673,0.1711,0.1733,0.1739,0.1746,0.1771,0.1829,0.1766,0.1766,0.1778,0.1886,0.1765,0.1761,0.1828,0.1829,0.1831,0.1881,0,0.139,0.1426,0.1441,0.1476,0.1491,0.152,0.1551,0.1586,0.1625,0.1673,0.1704,0.1749,0.1749,0.1778,0.1804,0.1823,0.185,0.1816,0.1843,0.1844,0.1724,0.1766,0.1835,0.1887,0.1888,0.189,0.1891,0,0.1375,0.1407,0.1448,0.1494,0.1504,0.1533,0.1588,0.1618,0.1678,0.1712,0.1762,0.1789,0.1844,0.1836,0.1895,0.1877,0.1892,0.1901,0.1902,0.1776,0.1735,0.1828,0.1904,0.1903,0.1902,0.1901,0.19,0,0.1345,0.1399,0.1439,0.1456,0.1514,0.1549,0.1583,0.1639,0.1676,0.1749,0.179,0.1842,0.1891,0.1916,0.1946,0.1932,0.2001,0.1976,0.1879,0.1871,0.1944,0.1936,0.2017,0.2017,0.2017,0.2016,0.2016,0,0.1315,0.1345,0.1441,0.1459,0.1512,0.1553,0.1609,0.1651,0.172,0.1756,0.1819,0.1853,0.1919,0.1961,0.1968,0.1946,0.2021,0.189,0.1875,0.1963,0.1957,0.1949,0.1941,0.2018,0.2018,0.2018,0.2017,0,0.1255,0.1321,0.137,0.1461,0.1498,0.1536,0.1625,0.1658,0.1733,0.1786,0.1817,0.1894,0.1933,0.1979,0.2024,0.1967,0.196,0.1935,0.2038,0.2028,0.1809,0.1803,0.182,0.1816,0.1813,0.181,0.1808,0,0.1226,0.1251,0.1368,0.1414,0.1462,0.1534,0.1577,0.1658,0.1686,0.1785,0.1798,0.188,0.1913,0.1878,0.1932,0.1931,0.191,0.1895,0.1836,0.1805,0.179,0.1788,0.1786,0.1803,0.1802,0.1801,0.18,0,0.1168,0.1225,0.127,0.1369,0.1438,0.1488,0.1556,0.1569,0.1646,0.1737,0.173,0.1739,0.178,0.1793,0.1815,0.1809,0.1893,0.186,0.1866,0.1811,0.1784,0.1772,0.1774,0.1789,0.179,0.1791,0.1792,0,0.1135,0.1151,0.1235,0.1306,0.1388,0.1416,0.1457,0.1482,0.1518,0.1614,0.1608,0.168,0.1757,0.1731,0.1746,0.1735,0.1701,0.1637,0.1654,0.1667,0.1591,0.1533,0.1451,0,0,0,0,0,0.1098,0.1115,0.117,0.1237,0.1308,0.1355,0.1431,0.1466,0.1544,0.1499,0.1544,0.1563,0.1565,0.1606,0.1562,0.169,0.1721,0.1632,0.166,0.1726,0.1739,0.1663,0,0,0,0,0,0,0.108,0.1128,0.1141,0.1166,0.1192,0.1251,0.1292,0.1344,0.1316,0.1401,0.1411,0.1473,0.1506,0.1576,0.1534,0.1548,0.1533,0.1682,0.1678,0.1718,0.173,0.1741,0.1667,0,0,0,0,0]},{"header":{"parameterUnit":"m.s-1","parameterCategory":2,"la1":30.2991,"la2":30.254,"lo1":-89.0895,"lo2":-89.0444,"dy":0.0017,"dx":0.0017,"nx":28,"ny":28,"refTime":"2024-10-18T03:00:00:Z","depth":"4","parameterNumber":3,"parameterNumberName":"V-component_of_CURRENTS"},"data":[0,0,0,0,0,0,0,0,0,0,0,0,0,0,0,0,0,0,0,0,0,0,0,0,0,0,0,0,0,0,0,0,0,0,0,0,0,0,0,0,0,0,0,0,0,0,0,0,0,0,0,0,0,0,0,0,0,0,0.017,0.017,0,0.0139,0.0138,0.0138,0.0121,0.0121,0.0122,0.0122,0.0092,0.0091,0.009,0,0,0,0,0,0,0,0,0,0,0,0,0,0.0175,0.0175,0.017,0.017,0.017,0.0139,0.0138,0.0138,0.0121,0.0121,0.0122,0.0122,0.0092,0.0091,0.009,0,0,0,0,0,0,0,0,0,0,0,0,0,0.0159,0.0175,0.017,0.0159,0.0158,0.0139,0.0138,0.0137,0.0121,0.0121,0.0122,0.0122,0.0093,0.0091,0.009,0.0077,0,0,0.0086,0.0085,0,0,0,0,0,0,0,0,0.016,0.0159,0.0161,0.016,0.0159,0.0136,0.0129,0.0118,0.0121,0.0133,0.0122,0.0122,0.0108,0.0105,0.0096,0.0075,0.0074,0.0085,0.0085,0.0084,0.0084,0,0,0,0,0,0,0,0.0161,0.016,0.0156,0.0161,0.016,0.0142,0.014,0.0126,0.0118,0.0132,0.0132,0.0131,0.0107,0.0097,0.0095,0.0074,0.0085,0.0084,0.0083,0.0083,0.0063,0.0063,0,0,0,0,0,0,0.0171,0.0161,0.0157,0.0155,0.0162,0.0142,0.014,0.0141,0.0118,0.0116,0.0131,0.013,0.01,0.0097,0.0094,0.0097,0.0084,0.0083,0.0082,0.0062,0.0063,0.0063,0,0,0,0,0,0,0.0171,0.0171,0.0158,0.0159,0.0156,0.0142,0.0144,0.0141,0.0136,0.0117,0.0114,0.013,0.01,0.0096,0.0088,0.0095,0.0082,0.0081,0.0062,0.0062,0.0063,0.009,0,0,0,0,0,0,0.0171,0.0171,0.0175,0.016,0.0157,0.0154,0.0144,0.014,0.0136,0.0135,0.0116,0.0113,0.01,0.009,0.0087,0.0093,0.008,0.0062,0.0062,0.0063,0.0088,0.0091,0.0093,0,0,0,0,0,0.0172,0.0177,0.0176,0.0175,0.0163,0.0154,0.0151,0.014,0.0136,0.0136,0.0123,0.0114,0.0091,0.0089,0.0085,0.0091,0.0061,0.0062,0.0063,0.0087,0.009,0.0093,0,0,0,0,0,0,0.018,0.0176,0.0174,0.0177,0.017,0.0152,0.0151,0.0143,0.0132,0.0132,0.0114,0.011,0.0105,0.0095,0.0093,0.0087,0.0076,0.0076,0.0096,0.0099,0.0101,0.0107,0.0079,0,0,0,0,0,0.0184,0.0189,0.018,0.0184,0.0181,0.0167,0.0162,0.0155,0.0144,0.0139,0.0125,0.0113,0.0103,0.0099,0.0087,0.0082,0.0063,0.0085,0.0087,0.0089,0.0091,0.0067,0.0067,0.0065,0.0065,0.0065,0,0,0.0189,0.0188,0.019,0.0186,0.0179,0.0179,0.0164,0.0161,0.0162,0.0138,0.0133,0.0119,0.0103,0.0099,0.0096,0.0092,0.0079,0.009,0.0092,0.0093,0.0068,0.0068,0.0068,0.0066,0.0066,0.0066,0,0,0.02,0.0199,0.0206,0.0204,0.0199,0.019,0.0192,0.0177,0.0172,0.0164,0.015,0.014,0.0122,0.0114,0.0108,0.0116,0.0091,0.0114,0.0132,0.0109,0.0108,0.0108,0.008,0.0077,0.0118,0.0118,0.0118,0,0.0205,0.0215,0.0206,0.0213,0.0215,0.0198,0.0206,0.0196,0.018,0.0179,0.0168,0.0144,0.013,0.0128,0.013,0.0122,0.0101,0.0122,0.0111,0.011,0.011,0.0081,0.0077,0.0119,0.0119,0.0119,0.0119,0,0.0221,0.023,0.0234,0.0239,0.0239,0.0243,0.0233,0.0229,0.0219,0.0207,0.0198,0.0174,0.0162,0.0156,0.0145,0.0138,0.0122,0.0115,0.0104,0.0111,0.008,0.0076,0.0121,0.012,0.012,0.012,0,0,0.0235,0.0244,0.0247,0.0258,0.0256,0.0259,0.0262,0.0259,0.0266,0.024,0.0242,0.0219,0.0203,0.0195,0.0178,0.0157,0.013,0.0136,0.0134,0.0107,0.0072,0.007,0.0064,0.0119,0.0118,0.0118,0.0051,0,0.0252,0.027,0.0271,0.0294,0.0304,0.0297,0.0304,0.03,0.0289,0.0284,0.0254,0.0248,0.0219,0.0216,0.0189,0.0149,0.0121,0.0149,0.0069,0.0066,0.0063,0.006,0.0117,0.0048,0.0047,0.0046,0.0045,0,0.0273,0.0284,0.0305,0.0329,0.0334,0.0344,0.0358,0.0362,0.0348,0.0339,0.0319,0.0295,0.0265,0.0239,0.0163,0.0181,0.0129,0.009,0.0086,0.0073,0.0057,0.0039,0.0037,0.0037,0.0038,0.0039,0.0039,0,0.0292,0.0314,0.0333,0.034,0.0356,0.037,0.038,0.0379,0.0393,0.0375,0.0379,0.0331,0.0316,0.0242,0.0164,0.0161,0.0073,0.0061,0.0006,0.0004,0.0014,0.0015,0.0001,0.0001,0.0001,0.0002,0.0002,0,0.0315,0.0337,0.0345,0.0358,0.039,0.0395,0.0428,0.0428,0.0437,0.0456,0.0412,0.0411,0.0316,0.0258,0.0173,0.0078,0.0078,0.0006,-0.0012,0.0026,0.003,0.001,0.0012,-0.0001,-0.0,0.0,0.0001,0,0.0341,0.0342,0.037,0.0389,0.0401,0.0424,0.0468,0.0491,0.0493,0.0515,0.0514,0.0471,0.0395,0.0294,0.0176,0.0101,0.0005,-0.003,0.0017,0.0003,-0.0055,-0.0051,-0.0102,-0.0103,-0.0103,-0.0104,-0.0104,0,0.0351,0.0366,0.0394,0.0409,0.0422,0.0459,0.0489,0.0513,0.054,0.0551,0.0562,0.0508,0.0462,0.0295,0.0184,0.0019,-0.0004,-0.0064,-0.0062,-0.0053,-0.0065,-0.006,-0.0055,-0.0105,-0.0105,-0.0105,-0.0105,0,0.037,0.038,0.0401,0.0433,0.0464,0.0507,0.055,0.0578,0.0605,0.0614,0.06,0.0519,0.0434,0.0302,0.0178,0.0059,-0.0031,-0.007,-0.007,-0.0069,-0.0057,-0.0067,-0.0062,-0.0107,-0.0107,-0.0107,-0.0107,0,0.0382,0.0397,0.0417,0.0446,0.049,0.0531,0.056,0.0592,0.0621,0.0635,0.0628,0.0537,0.0488,0.0322,0.0208,0.0093,0.0058,0.0007,0.0003,0.0003,0.0054,0.0086,0.0064,0,0,0,0,0,0.0383,0.0395,0.0425,0.0453,0.0503,0.0525,0.0589,0.0615,0.0649,0.0643,0.0638,0.0557,0.0397,0.0335,0.0219,0.0187,0.0031,0.0046,-0.0031,-0.0117,-0.0115,-0.0073,0,0,0,0,0,0,0.0378,0.0406,0.0418,0.0454,0.0477,0.0531,0.0572,0.06,0.06,0.0617,0.054,0.0509,0.036,0.0457,0.0208,0.0175,0.0106,-0.0023,-0.0026,-0.0118,-0.0116,-0.0115,-0.0071,0,0,0,0,0]}]]